"2010-02-14 00:00:00",1679319,4.479,329.1,5.027,1.018,3.66,101.449,2.997,4.184,41.42,0,109.8,13.47,3.76,291.1
"2010-02-14 00:00:30",1679320,5.983,333.4,6.651,1.619,4.993,101.4476,2.993,4.182,41.64,0,109.8,13.47,3.76,295.4
"2010-02-14 00:01:00",1679321,6.404,337.3,6.717,1.23,5.905,101.4414,2.977,4.275,41.75,0,109.8,13.47,3.74,299.3
"2010-02-14 00:01:30",1679322,6.782,348.1,10.94,1.038,6.571,101.4284,2.944,4.284,40.97,0,109.8,13.47,3.71,310.1
"2010-02-14 00:02:00",1679323,7.789,357.9,8.9,0.625,7.62,101.4247,2.935,4.276,38.68,0,109.8,13.47,3.70,319.9
"2010-02-14 00:02:30",1679324,4.958,338.6,8.27,0.997,5.563,101.4247,2.935,4.256,39.09,0,109.8,13.47,3.70,300.6
"2010-02-14 00:03:00",1679325,4.431,337.8,11.27,1.135,3.387,101.4224,2.929,3.996,39.06,0,109.8,13.47,3.69,299.8
"2010-02-14 00:03:30",1679326,5.01,338.3,4.337,1.199,4.742,101.406,2.887,4.147,38.77,0,109.8,13.48,3.65,300.3
"2010-02-14 00:04:00",1679327,6.332,347.6,10.52,1.356,6.331,101.391,2.849,4.166,38.9,0,109.8,13.48,3.61,309.6
"2010-02-14 00:04:30",1679328,6.956,351.4,10.58,1.052,6.566,101.3908,2.848,4.22,39.36,0,109.8,13.48,3.61,313.4
"2010-02-14 00:05:00",1679329,6.858,6.259,10.7,0.884,7.729,101.3899,2.846,4.242,39.76,0,109.8,13.48,3.61,328.3
"2010-02-14 00:05:30",1679330,7.276,359.7,15.63,1.26,6.595,101.3628,2.777,4.179,39.52,0,109.8,13.48,3.54,321.7
"2010-02-14 00:06:00",1679331,5.53,12.19,15.84,1.461,4.387,101.3568,2.761,4.082,40.03,0,109.8,13.48,3.52,334.2
"2010-02-14 00:06:30",1679332,4.993,349.6,5.201,1.227,3.525,101.3509,2.746,4.04,39.87,0,109.8,13.48,3.51,311.6
"2010-02-14 00:07:00",1679333,6.199,354.5,7.758,1.074,5.981,101.3306,2.694,4.021,39.56,0,109.8,13.48,3.46,316.5
"2010-02-14 00:07:30",1679334,5.234,3.44,7.257,1.153,6.797,101.3229,2.675,4.077,40.26,0,109.8,13.48,3.44,325.4
"2010-02-14 00:08:00",1679335,5.357,0.581,5.825,0.875,7.323,101.3147,2.654,4.098,41,0,109.8,13.48,3.42,322.6
"2010-02-14 00:08:30",1679336,3.276,5.142,13.5,1.364,5.611,101.2893,2.589,3.884,40.71,0,109.8,13.48,3.35,327.1
"2010-02-14 00:09:00",1679337,2.731,7.008,10.72,0.64,2.094,101.2899,2.59,3.743,40.56,0,109.8,13.52,3.35,329.0
"2010-02-14 00:09:30",1679338,3.146,18.15,5.986,0.926,2.71,101.2842,2.576,3.847,41.09,0,109.8,13.48,3.34,340.1
"2010-02-14 00:10:00",1679339,5.454,334.9,17.75,1.424,5.461,101.2585,2.51,3.81,40.75,0,109.8,13.48,3.27,296.9
"2010-02-14 00:10:30",1679340,4.636,342,16.75,0.693,7.5,101.25,2.489,3.986,40.8,0,109.8,13.48,3.25,304.0
"2010-02-14 00:11:00",1679341,3.575,9.11,16.62,0.871,7.414,101.2283,2.433,3.952,40.92,0,109.8,13.48,3.19,331.1
"2010-02-14 00:11:30",1679342,2.297,5.038,18.48,0.951,4.633,101.2289,2.435,3.698,40.92,0,109.8,13.48,3.20,327.0
"2010-02-14 00:12:00",1679343,1.026,6.646,13.99,0.426,1.927,101.2303,2.438,3.562,40.95,0,109.8,13.52,3.20,328.6
"2010-02-14 00:12:30",1679344,2.696,352,15.52,0.993,1.731,101.2168,2.404,3.535,41.22,0,109.8,13.52,3.16,314.0
"2010-02-14 00:13:00",1679345,2.66,2.15,14.32,1.099,2.697,101.1995,2.36,3.504,41.63,0,109.8,13.49,3.12,324.1
"2010-02-14 00:13:30",1679346,4.073,0.236,11.51,1.503,5.757,101.2044,2.372,3.726,42.24,0,109.8,13.49,3.13,322.2
"2010-02-14 00:14:00",1679347,6.733,10.98,11.21,0.824,7.872,101.2005,2.362,3.775,41.67,0,109.8,13.49,3.12,333.0
"2010-02-14 00:14:30",1679348,4.898,21.28,11.55,1.455,7.573,101.1802,2.311,3.758,41.72,0,109.8,13.49,3.07,343.3
"2010-02-14 00:15:00",1679349,5.669,4.569,10.58,1.48,6.04,101.1785,2.306,3.667,42.18,0,109.8,13.49,3.07,326.6
"2010-02-14 00:15:30",1679350,4.148,339.9,5.169,0.5,2.209,101.1547,2.246,3.436,42.26,0,109.8,13.52,3.01,301.9
"2010-02-14 00:16:00",1679351,4.341,330,4.654,0.459,2.181,101.1463,2.224,3.352,42.3,0,109.8,13.53,2.98,292.0
"2010-02-14 00:16:30",1679352,4.648,325.2,11.87,1.242,5.333,101.1451,2.221,3.582,42.58,0,109.8,13.5,2.98,287.2
"2010-02-14 00:17:00",1679353,6.277,348.7,9.5,0.759,7.62,101.1189,2.154,3.613,42.91,0,109.8,13.5,2.91,310.7
"2010-02-14 00:17:30",1679354,5.421,3.429,11.37,1.095,7.744,101.1172,2.15,3.562,43.13,0,109.8,13.5,2.91,325.4
"2010-02-14 00:18:00",1679355,5.144,23.24,6.314,0.811,7.354,101.1166,2.148,3.505,42.7,0,109.8,13.5,2.91,345.2
"2010-02-14 00:18:30",1679356,2.992,9.07,7.791,0.556,2.57,101.1104,2.133,3.233,41.83,0,109.8,13.54,2.89,331.1
"2010-02-14 00:19:00",1679357,3.897,347.9,11.71,0.802,3.281,101.0915,2.084,3.312,41.95,0,109.8,13.5,2.84,309.9
"2010-02-14 00:19:30",1679358,4.009,339.9,13.48,0.562,3.558,101.0856,2.069,3.193,42.91,0,109.8,13.5,2.83,301.9
"2010-02-14 00:20:00",1679359,4.201,18.28,16.89,1.12,7.194,101.0836,2.064,3.47,43.15,0,109.8,13.51,2.82,340.3
"2010-02-14 00:20:30",1679360,6.467,357,11.5,0.884,7.491,101.0621,2.009,3.456,43.22,0,109.7,13.51,2.77,319.0
"2010-02-14 00:21:00",1679361,6.459,344.4,7.997,0.739,7.135,101.0519,1.983,3.427,43.5,0,109.7,13.51,2.74,306.4
"2010-02-14 00:21:30",1679362,5.567,332.5,8.71,0.974,3.992,101.0519,1.983,3.19,43.68,0,109.7,13.51,2.74,294.5
"2010-02-14 00:22:00",1679363,5.531,331,3.596,0.648,3.229,101.0497,1.977,3.22,43.88,0,109.7,13.51,2.74,293.0
"2010-02-14 00:22:30",1679364,5.129,341.2,6.315,1.536,3.915,101.0352,1.941,3.065,43.33,0,109.7,13.51,2.70,303.2
"2010-02-14 00:23:00",1679365,5.564,7.371,9.14,1.216,7.319,101.0194,1.9,3.331,43.83,0,109.7,13.51,2.66,329.4
"2010-02-14 00:23:30",1679366,5.489,18.04,10.14,1.102,7.674,101.018,1.897,3.329,43.2,0,109.7,13.51,2.66,340.0
"2010-02-14 00:24:00",1679367,6.418,6.793,11.85,1.107,7.117,101.0169,1.894,3.295,43.25,0,109.7,13.51,2.65,328.8
"2010-02-14 00:24:30",1679368,4.043,360,14.9,1.684,3.457,100.9889,1.822,2.976,43.56,0,109.7,13.51,2.58,322.0
"2010-02-14 00:25:00",1679369,6.18,346.2,11.74,1.467,4.24,100.984,1.81,3.125,43.87,0,109.7,13.51,2.57,308.2
"2010-02-14 00:25:30",1679370,6.207,353.7,7.97,1.23,3.839,100.984,1.81,3.013,43.37,0,109.7,13.51,2.57,315.7
"2010-02-14 00:26:00",1679371,6.374,9.22,5.846,1.186,7.389,100.9807,1.801,3.222,43.3,0,109.7,13.51,2.56,331.2
"2010-02-14 00:26:30",1679372,7.457,356.6,8.66,1.425,7.278,100.9546,1.735,3.222,43.46,0,109.7,13.51,2.49,318.6
"2010-02-14 00:27:00",1679373,8.36,358.6,9.55,1.106,7.067,100.9504,1.724,3.175,44.04,0,109.7,13.51,2.48,320.6
"2010-02-14 00:27:30",1679374,6.353,8.06,6.507,1.012,6.665,100.9535,1.732,3.129,44.24,0,109.7,13.51,2.49,330.1
"2010-02-14 00:28:00",1679375,3.982,331.6,6.649,1.183,2.136,100.949,1.721,2.946,43.71,0,109.7,13.51,2.48,293.6
"2010-02-14 00:28:30",1679376,5.297,324.6,9.52,0.774,3.876,100.9304,1.673,2.879,43.58,0,109.7,13.51,2.43,286.6
"2010-02-14 00:29:00",1679377,6.193,320.6,7.719,0.923,3.932,100.9305,1.673,2.962,43.7,0,109.7,13.51,2.43,282.6
"2010-02-14 00:29:30",1679378,6.745,333.5,6.83,1.065,6.989,100.9359,1.687,3.058,44.22,0,109.7,13.51,2.45,295.5
"2010-02-14 00:30:00",1679379,6.78,339.2,8.47,1.058,7.315,100.9419,1.702,3.06,44.28,0,109.7,13.51,2.46,301.2
"2010-02-14 00:30:30",1679380,6.919,354.4,9.27,1.536,7.34,100.9359,1.687,3.065,44.24,0,109.7,13.51,2.45,316.4
"2010-02-14 00:31:00",1679381,4.77,10.44,7.982,0.855,6.24,100.9193,1.645,2.957,43.61,0,109.7,13.51,2.40,332.4
"2010-02-14 00:31:30",1679382,2.864,345.7,33.28,1.145,4.549,100.9133,1.63,2.816,43.7,0,109.7,13.51,2.39,307.7
"2010-02-14 00:32:00",1679383,2.759,314.1,9.72,0.736,1.598,100.9148,1.633,2.709,44.31,0,109.7,13.55,2.39,276.1
"2010-02-14 00:32:30",1679384,5.526,338.1,8.94,1.193,3.321,100.9159,1.636,2.819,44.58,0,109.7,13.52,2.39,300.1
"2010-02-14 00:33:00",1679385,6.507,344.7,8.96,0.939,6.869,100.9156,1.636,2.91,44.72,0,109.7,13.53,2.39,306.7
"2010-02-14 00:33:30",1679386,6.685,320,7.105,0.731,7.397,100.9069,1.613,2.973,44.51,0,109.7,13.53,2.37,282.0
"2010-02-14 00:34:00",1679387,8.48,330.8,5.827,1.315,7.254,100.8876,1.564,2.931,44.26,0,109.7,13.53,2.32,292.8
"2010-02-14 00:34:30",1679388,8.49,327.8,4.611,0.982,6.884,100.8826,1.551,2.929,44.15,0,109.7,13.53,2.31,289.8
"2010-02-14 00:35:00",1679389,7.794,334,8.89,1.086,6.01,100.8826,1.551,2.845,44.18,0,109.7,13.53,2.31,296.0
"2010-02-14 00:35:30",1679390,6.959,333.9,7.261,1.124,5.292,100.8826,1.551,2.756,44.19,0,109.7,13.53,2.31,295.9
"2010-02-14 00:36:00",1679391,6.761,332.7,7.978,1.169,4.138,100.8826,1.551,2.769,44.43,0,109.7,13.53,2.31,294.7
"2010-02-14 00:36:30",1679392,8.08,325.1,10.03,1.251,6.211,100.8826,1.551,2.834,44.62,0,109.7,13.53,2.31,287.1
"2010-02-14 00:37:00",1679393,7.021,329.9,8.37,1.064,7.415,100.8823,1.55,2.858,43.31,0,109.7,13.53,2.31,291.9
"2010-02-14 00:37:30",1679394,5.944,319,5.851,1.026,7.259,100.88,1.545,2.836,42.78,0,109.7,13.53,2.30,281.0
"2010-02-14 00:38:00",1679395,5.724,320.5,11.69,1.415,6.282,100.8735,1.528,2.878,42.84,0,109.7,13.53,2.29,282.5
"2010-02-14 00:38:30",1679396,7.361,325,5.566,1.712,5.457,100.871,1.522,2.775,43.08,0,109.7,13.53,2.28,287.0
"2010-02-14 00:39:00",1679397,7.663,327.4,10.13,0.994,4.941,100.869,1.517,2.674,42.47,0,109.7,13.53,2.27,289.4
"2010-02-14 00:39:30",1679398,6.8,347,21.56,1.476,6.333,100.865,1.506,2.709,42.57,0,109.7,13.53,2.26,309.0
"2010-02-14 00:40:00",1679399,8.5,0.942,10.29,1.567,7.357,100.863,1.501,2.846,42.64,0,109.7,13.53,2.26,322.9
"2010-02-14 00:40:30",1679400,9.73,345.2,5.598,0.744,7.6,100.8642,1.504,2.847,42.11,0,109.7,13.53,2.26,307.2
"2010-02-14 00:41:00",1679401,7.836,345.2,3.876,0.746,7.233,100.8647,1.506,2.852,42.54,0,109.7,13.53,2.26,307.2
"2010-02-14 00:41:30",1679402,6.82,347.7,6.924,1.17,6.364,100.8639,1.504,2.854,42.98,0,109.7,13.53,2.26,309.7
"2010-02-14 00:42:00",1679403,5.754,336.1,7.583,1.205,4.913,100.8633,1.502,2.747,43.32,0,109.7,13.53,2.26,298.1
"2010-02-14 00:42:30",1679404,5.454,325.3,3.55,0.579,2.209,100.8622,1.499,2.548,43.5,0,109.7,13.56,2.26,287.3
"2010-02-14 00:43:00",1679405,7.586,338.1,9.53,1.47,5.314,100.8596,1.493,2.707,43.39,0,109.7,13.53,2.25,300.1
"2010-02-14 00:43:30",1679406,8.37,341.1,7.189,1.049,6.665,100.8594,1.492,2.84,42.5,0,109.7,13.53,2.25,303.1
"2010-02-14 00:44:00",1679407,7.961,336.9,4.25,0.751,7.608,100.86,1.494,2.86,42.71,0,109.7,13.53,2.25,298.9
"2010-02-14 00:44:30",1679408,6.548,328,5.653,1.024,7.227,100.8577,1.488,2.853,43.32,0,109.6,13.53,2.24,290.0
"2010-02-14 00:45:00",1679409,5.523,340.9,6.188,1.012,6.128,100.8543,1.479,2.866,43.67,0,109.7,13.53,2.24,302.9
"2010-02-14 00:45:30",1679410,6.094,340.6,6.024,1.104,4.555,100.8586,1.49,2.644,43.4,0,109.7,13.53,2.25,302.6
"2010-02-14 00:46:00",1679411,4.781,341.2,3.063,0.279,2.276,100.8583,1.489,2.573,43.18,0,109.7,13.56,2.25,303.2
"2010-02-14 00:46:30",1679412,5.775,348.9,4.642,1.285,4.641,100.8589,1.491,2.684,43.41,0,109.7,13.53,2.25,310.9
"2010-02-14 00:47:00",1679413,6.524,357.4,9.3,1.183,6.532,100.8603,1.494,2.817,42.55,0,109.6,13.53,2.25,319.4
"2010-02-14 00:47:30",1679414,6.761,357.6,7.017,0.761,7.399,100.8623,1.5,2.84,41.54,0,109.6,13.53,2.26,319.6
"2010-02-14 00:48:00",1679415,7.071,353.6,5.3,0.685,7.366,100.8654,1.508,2.852,42.01,0,109.7,13.53,2.26,315.6
"2010-02-14 00:48:30",1679416,5.785,337.1,11.88,1.218,5.48,100.8691,1.517,2.797,42.16,0,109.6,13.54,2.27,299.1
"2010-02-14 00:49:00",1679417,5.519,324.6,6.051,1.354,3.85,100.8697,1.518,2.54,42.29,0,109.6,13.54,2.28,286.6
"2010-02-14 00:49:30",1679418,3.669,313,3.296,0.63,2.486,100.8711,1.522,2.641,42.9,0,109.6,13.54,2.28,275.0
"2010-02-14 00:50:00",1679419,4.868,330.8,7.669,1.126,5.793,100.8757,1.534,2.754,42.66,0,109.6,13.54,2.29,292.8
"2010-02-14 00:50:30",1679420,4.755,335.2,9.51,1.151,6.176,100.8769,1.537,2.763,43.18,0,109.6,13.54,2.29,297.2
"2010-02-14 00:51:00",1679421,5.289,327.8,9.67,1.139,5.672,100.8754,1.533,2.792,43.45,0,109.6,13.54,2.29,289.8
"2010-02-14 00:51:30",1679422,4.59,323.5,5.22,1.27,4.992,100.8766,1.536,2.746,43.56,0,109.6,13.54,2.29,285.5
"2010-02-14 00:52:00",1679423,4.116,327.5,4.396,0.892,3.396,100.8769,1.537,2.549,43.64,0,109.6,13.54,2.29,289.5
"2010-02-14 00:52:30",1679424,5.224,332.9,9.44,1.176,4.905,100.8766,1.536,2.655,44.51,0,109.6,13.54,2.29,294.9
"2010-02-14 00:53:00",1679425,6.131,341.5,6.853,1.08,6.462,100.8746,1.531,2.772,44.37,0,109.6,13.55,2.29,303.5
"2010-02-14 00:53:30",1679426,5.99,344,4.255,0.997,6.638,100.8664,1.51,2.732,43.74,0,109.6,13.55,2.27,306.0
"2010-02-14 00:54:00",1679427,4.956,348,9.95,1.392,6.192,100.8537,1.478,2.784,43.58,0,109.6,13.55,2.23,310.0
"2010-02-14 00:54:30",1679428,4.61,355.1,9.01,1.032,5.103,100.8478,1.462,2.705,43.49,0,109.6,13.55,2.22,317.1
"2010-02-14 00:55:00",1679429,4.191,357.4,8.26,1.873,4.068,100.8486,1.465,2.555,43.34,0,109.6,13.55,2.22,319.4
"2010-02-14 00:55:30",1679430,3.031,2.163,6.482,1.493,4.214,100.8483,1.464,2.69,43.4,0,109.6,13.55,2.22,324.2
"2010-02-14 00:56:00",1679431,5.702,0.43,5.489,1.415,5.741,100.8489,1.465,2.721,43.35,0,109.6,13.55,2.22,322.4
"2010-02-14 00:56:30",1679432,5.669,357.3,5.985,1.173,5.651,100.8489,1.465,2.676,43.22,0,109.6,13.55,2.22,319.3
"2010-02-14 00:57:00",1679433,5.578,0.091,5.742,1.009,6.453,100.8489,1.465,2.789,43.46,0,109.6,13.55,2.22,322.1
"2010-02-14 00:57:30",1679434,3.442,2.881,6.583,1.482,3.73,100.8483,1.464,2.643,43.06,0,109.6,13.55,2.22,324.9
"2010-02-14 00:58:00",1679435,3.123,16.42,7.023,1.182,4.98,100.8415,1.447,2.563,42.12,0,109.6,13.56,2.20,338.4
"2010-02-14 00:58:30",1679436,3.307,13.19,9.98,1.229,3.622,100.8277,1.411,2.475,41.51,0,109.6,13.56,2.17,335.2
"2010-02-14 00:59:00",1679437,4.269,20.3,12.14,1.655,5.124,100.8155,1.38,2.702,42.32,0,109.6,13.56,2.14,342.3
"2010-02-14 00:59:30",1679438,5.565,29.59,5.462,1.144,6.149,100.8149,1.379,2.661,42.63,0,109.6,13.55,2.14,351.6
"2010-02-14 01:00:00",1679439,4.77,18.18,8.09,1.218,6.784,100.8149,1.379,2.707,43.06,0,109.6,13.55,2.14,340.2
"2010-02-14 01:00:30",1679440,4.869,4.822,9.5,1.702,4.569,100.8149,1.379,2.581,43.13,0,109.6,13.55,2.14,326.8
"2010-02-14 01:01:00",1679441,4.648,11.39,13.82,1.137,4.749,100.8149,1.379,2.655,43.14,0,109.6,13.55,2.14,333.4
"2010-02-14 01:01:30",1679442,4.548,17.93,13.19,1.194,5.939,100.8149,1.379,2.569,43.04,0,109.6,13.55,2.14,339.9
"2010-02-14 01:02:00",1679443,4.228,12.79,7.193,1.34,5.978,100.8118,1.371,2.634,43.28,0,109.6,13.55,2.13,334.8
"2010-02-14 01:02:30",1679444,4.247,16.2,7.874,0.941,5.769,100.794,1.325,2.627,43.14,0,109.6,13.55,2.08,338.2
"2010-02-14 01:03:00",1679445,4.426,24.12,7.366,1.358,4.186,100.7818,1.294,2.543,43.28,0,109.6,13.55,2.05,346.1
"2010-02-14 01:03:30",1679446,4.866,25.41,7.089,1.408,5.015,100.781,1.292,2.487,43.44,0,109.6,13.55,2.05,347.4
"2010-02-14 01:04:00",1679447,4.522,25.97,7.028,1.165,3.184,100.781,1.292,2.536,43.78,0,109.6,13.56,2.05,348.0
"2010-02-14 01:04:30",1679448,4.703,27.62,8.6,1.439,5.699,100.781,1.292,2.586,44.05,0,109.6,13.56,2.05,349.6
"2010-02-14 01:05:00",1679449,4.19,21.12,31.09,1.023,6.329,100.781,1.292,2.615,44.2,0,109.6,13.56,2.05,343.1
"2010-02-14 01:05:30",1679450,4.973,25.31,8.24,1.835,4.777,100.7782,1.285,2.507,44.23,0,109.6,13.56,2.04,347.3
"2010-02-14 01:06:00",1679451,3.672,19.03,31.27,1.144,3.943,100.7589,1.236,2.455,43.87,0,109.6,13.56,1.99,341.0
"2010-02-14 01:06:30",1679452,6.082,26.01,8.35,1.634,4.379,100.7473,1.206,2.473,43.8,0,109.6,13.56,1.96,348.0
"2010-02-14 01:07:00",1679453,6.093,26.58,8.37,1.115,4.786,100.7476,1.207,2.476,43.17,0,109.6,13.56,1.96,348.6
"2010-02-14 01:07:30",1679454,6.864,32.91,6.686,1.028,6.716,100.7473,1.206,2.566,43.3,0,109.6,13.56,1.96,354.9
"2010-02-14 01:08:00",1679455,5.783,32.93,57.08,1.299,7.077,100.7453,1.201,2.6,42.9,0,109.6,13.56,1.96,354.9
"2010-02-14 01:08:30",1679456,5.802,24.46,31.16,1.13,6.728,100.7204,1.138,2.549,42.7,0,109.6,13.56,1.89,346.5
"2010-02-14 01:09:00",1679457,3.382,20.17,45.19,1.68,3.683,100.7148,1.123,2.286,43.54,0,109.6,13.56,1.88,342.2
"2010-02-14 01:09:30",1679458,3.628,11.63,4.164,0.942,2.066,100.7145,1.122,2.227,43.42,0,109.6,13.59,1.88,333.6
"2010-02-14 01:10:00",1679459,6.572,22.14,6.717,1.713,4.596,100.7148,1.123,2.357,41.42,0,109.6,13.56,1.88,344.1
"2010-02-14 01:10:30",1679460,7.598,25.03,8.4,1.608,6.887,100.7142,1.122,2.461,41.15,0,109.6,13.57,1.88,347.0
"2010-02-14 01:11:00",1679461,8.16,24.63,7.023,1.152,7.474,100.7055,1.099,2.504,41.94,0,109.6,13.57,1.86,346.6
"2010-02-14 01:11:30",1679462,5.776,25.16,8.91,1.305,7.057,100.6885,1.056,2.489,42.35,0,109.6,13.57,1.81,347.2
"2010-02-14 01:12:00",1679463,7.337,29.53,8.28,1.781,6.774,100.6857,1.049,2.458,42.01,0,109.6,13.56,1.80,351.5
"2010-02-14 01:12:30",1679464,8.3,30.33,2.957,1.201,6.973,100.6877,1.054,2.45,40.76,0,109.6,13.56,1.81,352.3
"2010-02-14 01:13:00",1679465,8.6,22.03,7.375,1.499,7.144,100.6919,1.065,2.434,40.26,0,109.6,13.56,1.82,344.0
"2010-02-14 01:13:30",1679466,8.63,26.2,4.871,1.145,6.467,100.6922,1.066,2.433,40.38,0,109.6,13.56,1.82,348.2
"2010-02-14 01:14:00",1679467,7.088,27.44,8.56,1.572,5.319,100.6928,1.067,2.342,40.65,0,109.6,13.56,1.82,349.4
"2010-02-14 01:14:30",1679468,7.081,25.42,6.531,1.927,4.27,100.6936,1.069,2.266,41.01,0,109.6,13.56,1.82,347.4
"2010-02-14 01:15:00",1679469,5.814,17.84,5.162,0.883,3.91,100.6962,1.076,2.241,39.97,0,109.6,13.56,1.83,339.8
"2010-02-14 01:15:30",1679470,8.87,28.78,4.744,1.116,7.211,100.6996,1.085,2.341,39.6,0,109.6,13.56,1.84,350.8
"2010-02-14 01:16:00",1679471,9.54,32.34,4.113,0.907,7.655,100.7013,1.089,2.389,39.49,0,109.6,13.56,1.84,354.3
"2010-02-14 01:16:30",1679472,9.35,30.97,4.488,0.835,8.03,100.7019,1.09,2.403,38.54,0,109.6,13.56,1.85,353.0
"2010-02-14 01:17:00",1679473,8.83,31.18,4.157,0.786,7.554,100.7039,1.095,2.387,38.38,0,109.6,13.56,1.85,353.2
"2010-02-14 01:17:30",1679474,7.08,27.35,3.874,1.018,7.405,100.7036,1.095,2.39,38.73,0,109.6,13.56,1.85,349.4
"2010-02-14 01:18:00",1679475,7.354,28.32,5.015,1.131,6.983,100.7042,1.096,2.416,39.18,0,109.6,13.56,1.85,350.3
"2010-02-14 01:18:30",1679476,8.51,33.32,7.464,1.327,6.258,100.7033,1.094,2.409,39.22,0,109.6,13.55,1.85,355.3
"2010-02-14 01:19:00",1679477,7.891,30.02,4.296,1.096,6.371,100.7059,1.101,2.416,40.85,0,109.6,13.55,1.86,352.0
"2010-02-14 01:19:30",1679478,8.93,32.12,3.665,0.872,6.486,100.707,1.103,2.404,39.22,0,109.6,13.55,1.86,354.1
"2010-02-14 01:20:00",1679479,9.48,30.13,3.04,0.868,6.538,100.7093,1.109,2.4,38.49,0,109.6,13.55,1.87,352.1
"2010-02-14 01:20:30",1679480,8.4,29.2,4.395,1.226,6.717,100.7096,1.11,2.405,38.44,0,109.6,13.55,1.87,351.2
"2010-02-14 01:21:00",1679481,9.19,31.45,3.419,0.887,6.872,100.7079,1.106,2.393,38.26,0,109.6,13.56,1.86,353.5
"2010-02-14 01:21:30",1679482,9.02,30.61,3.827,0.865,6.717,100.7093,1.109,2.398,38.13,0,109.6,13.56,1.87,352.6
"2010-02-14 01:22:00",1679483,8.57,29.74,3.699,1.077,6.88,100.711,1.114,2.426,38.19,0,109.6,13.56,1.87,351.7
"2010-02-14 01:22:30",1679484,9.46,30.99,4.496,1.009,6.841,100.713,1.119,2.411,38.1,0,109.6,13.56,1.87,353.0
"2010-02-14 01:23:00",1679485,7.558,26.44,6.26,2.014,6.938,100.7255,1.15,2.415,37.79,0,109.6,13.56,1.91,348.4
"2010-02-14 01:23:30",1679486,5.143,17.23,5.093,1.026,3.582,100.7368,1.179,2.329,37.62,0,109.6,13.59,1.94,339.2
"2010-02-14 01:24:00",1679487,6.013,21.04,7.371,1.579,4.712,100.743,1.195,2.2,37.41,0,109.6,13.56,1.95,343.0
"2010-02-14 01:24:30",1679488,6.318,20.51,5.154,0.884,5.297,100.7436,1.197,2.378,37.57,0,109.6,13.56,1.95,342.5
"2010-02-14 01:25:00",1679489,7.321,24.08,8.54,1.447,7.511,100.7419,1.192,2.428,37.53,0,109.6,13.56,1.95,346.1
"2010-02-14 01:25:30",1679490,7.073,25.63,4.828,1.125,7.545,100.7427,1.194,2.471,37.36,0,109.6,13.57,1.95,347.6
"2010-02-14 01:26:00",1679491,9.15,32.01,4.124,0.799,7.3,100.7447,1.2,2.464,37.32,0,109.6,13.56,1.96,354.0
"2010-02-14 01:26:30",1679492,8.76,30.74,7.25,1.283,6.094,100.7433,1.196,2.425,37.25,0,109.6,13.56,1.95,352.7
"2010-02-14 01:27:00",1679493,6.671,24.6,7.309,1.537,6.491,100.7433,1.196,2.376,37.22,0,109.6,13.56,1.95,346.6
"2010-02-14 01:27:30",1679494,6.926,22.56,7.29,1.096,6.198,100.745,1.2,2.346,36.65,0,109.6,13.56,1.96,344.6
"2010-02-14 01:28:00",1679495,6.902,25.45,6.408,1.015,6.02,100.7591,1.236,2.361,36.89,0,109.6,13.56,1.99,347.5
"2010-02-14 01:28:30",1679496,6.865,19.85,6.903,1.343,6.511,100.7707,1.266,2.437,36.8,0,109.6,13.57,2.02,341.9
"2010-02-14 01:29:00",1679497,6.392,22.57,6.559,1.213,7.17,100.7787,1.286,2.472,36.14,0,109.6,13.57,2.04,344.6
"2010-02-14 01:29:30",1679498,6.01,24.44,5.384,1.037,6.106,100.7795,1.288,2.416,36.37,0,109.6,13.57,2.04,346.4
"2010-02-14 01:30:00",1679499,6.473,25,5.994,1.178,5.666,100.7795,1.288,2.459,36.82,0,109.6,13.57,2.04,347.0
"2010-02-14 01:30:30",1679500,5.754,23.85,6.784,1.591,6.202,100.7801,1.29,2.417,36.52,0,109.6,13.57,2.05,345.9
"2010-02-14 01:31:00",1679501,6.407,24.28,7.805,1.352,5.695,100.7804,1.291,2.457,36.36,0,109.6,13.57,2.05,346.3
"2010-02-14 01:31:30",1679502,6.7,25.26,5.527,1.04,6.726,100.781,1.292,2.497,36.16,0,109.6,13.57,2.05,347.3
"2010-02-14 01:32:00",1679503,6.015,23.08,7.142,1.592,6.196,100.7787,1.286,2.391,35.99,0,109.6,13.57,2.04,345.1
"2010-02-14 01:32:30",1679504,6.794,23.85,6.958,1.203,5.9,100.7801,1.29,2.497,35.84,0,109.6,13.57,2.05,345.9
"2010-02-14 01:33:00",1679505,6.507,23.98,5.971,1.411,6.63,100.781,1.292,2.503,35.77,0,109.6,13.57,2.05,346.0
"2010-02-14 01:33:30",1679506,8.11,29.31,5.145,0.899,7.252,100.7855,1.304,2.593,35.86,0,109.6,13.57,2.06,351.3
"2010-02-14 01:34:00",1679507,7.47,26.16,6.742,1.333,5.79,100.7965,1.332,2.479,36.01,0,109.6,13.57,2.09,348.2
"2010-02-14 01:34:30",1679508,8.59,30.39,6.031,1.044,6.786,100.805,1.353,2.506,35.96,0,109.6,13.57,2.11,352.4
"2010-02-14 01:35:00",1679509,8.03,25.43,7.958,1.249,7.926,100.8112,1.369,2.61,35.06,0,109.6,13.57,2.13,347.4
"2010-02-14 01:35:30",1679510,8.15,4.241,5.96,2.112,6.937,100.8138,1.376,2.536,32.46,0,109.6,13.57,2.13,326.2
"2010-02-14 01:36:00",1679511,9,1.269,6.399,1.66,7.009,100.8144,1.377,2.505,31.8,0,109.6,13.57,2.13,323.3
"2010-02-14 01:36:30",1679512,7.738,14.9,7.215,1.139,7.636,100.8144,1.377,2.627,32.22,0,109.6,13.57,2.13,336.9
"2010-02-14 01:37:00",1679513,6.973,25.93,7.421,1.513,7.189,100.8257,1.406,2.6,32.47,0,109.6,13.57,2.16,347.9
"2010-02-14 01:37:30",1679514,4.912,19.69,11.81,2.018,5.389,100.8475,1.462,2.549,32.92,0,109.6,13.57,2.22,341.7
"2010-02-14 01:38:00",1679515,3.036,9.97,6.022,0.585,3.178,100.8489,1.465,2.485,32.84,0,109.6,13.6,2.22,332.0
"2010-02-14 01:38:30",1679516,5.734,14.68,7.821,1.42,5.736,100.8489,1.465,2.507,32.87,0,109.6,13.57,2.22,336.7
"2010-02-14 01:39:00",1679517,5.95,24.7,7.165,1.543,5.887,100.8486,1.465,2.638,33.33,0,109.6,13.57,2.22,346.7
"2010-02-14 01:39:30",1679518,6.369,24.41,6.2,0.976,7.637,100.8492,1.466,2.733,33.78,0,109.6,13.57,2.22,346.4
"2010-02-14 01:40:00",1679519,7.992,30.4,4.699,1.26,7.173,100.8562,1.484,2.746,34.3,0,109.6,13.57,2.24,352.4
"2010-02-14 01:40:30",1679520,8.26,29.63,6.133,1.231,6.401,100.8662,1.509,2.695,34.74,0,109.6,13.57,2.27,351.6
"2010-02-14 01:41:00",1679521,8.68,31.13,3.76,0.765,6.932,100.8738,1.529,2.719,34.77,0,109.6,13.57,2.29,353.1
"2010-02-14 01:41:30",1679522,5.354,20.04,5.392,0.925,5.171,100.8783,1.54,2.673,34.18,0,109.6,13.57,2.30,342.0
"2010-02-14 01:42:00",1679523,5.597,19.1,6.725,1.45,5.29,100.8829,1.552,2.574,33.57,0,109.6,13.57,2.31,341.1
"2010-02-14 01:42:30",1679524,7.405,19.02,9.33,1.114,5.63,100.8829,1.552,2.65,33.64,0,109.6,13.57,2.31,341.0
"2010-02-14 01:43:00",1679525,6.412,13.97,10.28,1.757,7.382,100.8826,1.551,2.766,33.14,0,109.6,13.57,2.31,336.0
"2010-02-14 01:43:30",1679526,7.405,9.88,8.41,1.086,7.105,100.8829,1.552,2.749,32.9,0,109.6,13.57,2.31,331.9
"2010-02-14 01:44:00",1679527,8.7,360,4.972,1.424,6.472,100.8829,1.552,2.789,33.26,0,109.6,13.57,2.31,322.0
"2010-02-14 01:44:30",1679528,5.164,10.06,9.05,2.541,5.968,100.8826,1.551,2.768,33.6,0,109.6,13.57,2.31,332.1
"2010-02-14 01:45:00",1679529,3.693,4.452,19.22,1.8,3.727,100.8832,1.553,2.652,33.67,0,109.6,13.57,2.31,326.5
"2010-02-14 01:45:30",1679530,4.976,17.04,6.835,1.147,5.135,100.8832,1.553,2.566,33.54,0,109.6,13.57,2.31,339.0
"2010-02-14 01:46:00",1679531,4.982,20.29,6.876,1.496,4.364,100.8823,1.551,2.659,33.48,0,109.6,13.57,2.31,342.3
"2010-02-14 01:46:30",1679532,6.263,26.41,4.879,0.946,6.315,100.8829,1.552,2.766,33.62,0,109.6,13.57,2.31,348.4
"2010-02-14 01:47:00",1679533,6.291,25.56,5.516,1.355,6.606,100.8829,1.552,2.769,33.85,0,109.6,13.57,2.31,347.6
"2010-02-14 01:47:30",1679534,6.171,25.19,5.685,1.231,6.189,100.8832,1.553,2.754,34.21,0,109.6,13.57,2.31,347.2
"2010-02-14 01:48:00",1679535,4.866,18.6,8.6,1.512,4.344,100.8832,1.553,2.659,34.25,0,109.6,13.57,2.31,340.6